This is the latest recevied weather packets stored in our database for station/object DB0FN-10. If no packets are shown the sender has not sent any weather packets the latest 10 day(s).
| Time | Temp. | Humidity | Pressure | Rain* | Wind** | Luminosity | Snow |
|---|---|---|---|---|---|---|---|
| 1777519855 | 8.33° C | 40% | 1024.6 hPa | - | - | - | - |
| 1777518954 | 8.89° C | 40% | 1024.5 hPa | - | - | - | - |
| 1777518055 | 8.89° C | 39% | 1024.6 hPa | - | - | - | - |
| 1777517154 | 8.89° C | 39% | 1024.7 hPa | - | - | - | - |
| 1777516254 | 9.44° C | 38% | 1024.9 hPa | - | - | - | - |
| 1777515354 | 9.44° C | 37% | 1024.8 hPa | - | - | - | - |
| 1777514454 | 9.44° C | 37% | 1024.7 hPa | - | - | - | - |
| 1777513554 | 10° C | 36% | 1024.5 hPa | - | - | - | - |
| 1777512654 | 10° C | 36% | 1024.4 hPa | - | - | - | - |
| 1777511754 | 10.56° C | 34% | 1024.3 hPa | - | - | - | - |
| 1777510854 | 10.56° C | 34% | 1024.4 hPa | - | - | - | - |
| 1777509954 | 11.11° C | 33% | 1024.3 hPa | - | - | - | - |
| 1777509054 | 11.11° C | 33% | 1024.4 hPa | - | - | - | - |
| 1777508154 | 11.11° C | 33% | 1024.5 hPa | - | - | - | - |
| 1777507254 | 11.11° C | 32% | 1024.3 hPa | - | - | - | - |
| 1777506353 | 11.67° C | 32% | 1024.5 hPa | - | - | - | - |
| 1777505453 | 11.67° C | 32% | 1024.4 hPa | - | - | - | - |
| 1777504553 | 12.22° C | 32% | 1024.6 hPa | - | - | - | - |
| 1777503653 | 12.78° C | 31% | 1024.6 hPa | - | - | - | - |
| 1777502753 | 12.78° C | 31% | 1024.7 hPa | - | - | - | - |
| 1777501853 | 13.33° C | 31% | 1024.6 hPa | - | - | - | - |
| 1777500953 | 13.33° C | 30% | 1024.4 hPa | - | - | - | - |
| 1777500053 | 13.33° C | 30% | 1024.4 hPa | - | - | - | - |
| 1777499153 | 14.44° C | 29% | 1024.6 hPa | - | - | - | - |
| 1777498253 | 13.89° C | 30% | 1024.5 hPa | - | - | - | - |
* Rain since midnight (hover to see other rain measurements)
** Current wind speed in m/s (hover to see current wind gust speed)